Theta_e
345 344 343 345 345 343 339 341 341 339 338 337 333 332 332 333 334 334 333 334 336 338 340 339 341 336 334 333 328 325 327 327 327 326 324 330 336 334 332 330 329 340 334
344 344 344 345 344 343 342 340 339 336 334 332 331 332 332 333 333 334 334 333 335 337 340 340 338 337 333 331 327 334 334 327 323 323 325 326 335 335 331 337 342 334 332
344 343 344 343 341 339 337 334 332 331 330 331 332 332 333 333 333 333 333 332 333 335 340 341 340 338 337 335 338 338 340 334 323 325 329 342 340 335 334 338 336 338 330
342 342 340 335 330 329 331 332 331 330 331 332 333 333 333 333 334 333 334 333 332 333 333 338 339 339 338 339 341 342 342 338 330 331 341 342 344 333 332 339 335 332 330
343 342 333 330 330 333 332 330 330 329 332 332 332 332 333 334 335 334 339 338 336 335 335 335 338 338 338 339 340 338 340 340 334 330 336 342 344 337 329 328 328 333 336
343 342 332 334 333 332 329 330 329 328 330 332 332 332 333 336 337 337 339 343 343 338 336 338 339 340 340 339 340 340 338 337 333 329 330 337 344 332 325 334 330 337 337
341 341 332 332 332 331 330 329 329 328 330 332 331 331 335 338 338 338 340 343 340 338 339 340 341 342 342 342 342 340 339 340 336 326 328 339 341 333 338 338 335 334 336
342 343 336 331 331 331 330 329 329 330 331 332 331 333 338 339 339 338 338 338 340 340 339 340 341 342 342 344 342 340 342 342 340 334 326 329 337 339 336 334 327 336 336
343 342 341 331 330 330 330 330 328 329 332 333 336 337 340 339 339 339 338 337 338 338 338 340 341 343 344 344 342 335 334 336 339 340 325 329 339 337 329 329 330 326 331
342 339 333 330 329 330 330 330 330 329 332 338 341 341 340 339 341 340 339 338 339 341 342 344 343 343 344 344 343 342 341 337 336 340 334 331 338 335 334 332 332 329 335
343 340 335 330 329 328 329 330 331 329 332 336 344 342 343 340 342 344 343 340 339 341 343 342 342 343 343 343 341 343 342 341 340 342 340 328 335 328 339 337 336 333 332
343 339 336 331 329 328 329 330 331 329 332 333 341 345 344 343 345 344 343 343 343 343 344 343 345 344 343 345 341 339 342 342 338 340 340 338 327 325 333 329 332 336 337
340 339 337 335 332 329 329 330 332 329 331 335 343 344 344 343 344 343 342 342 344 344 344 344 343 342 341 342 339 337 342 341 338 341 340 338 338 331 326 325 331 333 334
335 334 333 333 331 330 330 332 332 329 330 332 343 344 344 345 344 344 344 343 345 344 343 343 343 343 340 342 339 334 338 342 338 340 340 339 338 339 341 333 339 329 335
335 335 334 334 333 334 335 334 330 329 330 331 343 338 342 343 344 344 345 344 342 344 345 344 345 344 342 342 341 336 332 340 338 340 338 336 337 336 339 338 335 334 328
336 336 337 337 337 336 335 332 329 329 330 331 334 339 341 341 342 345 346 343 342 344 345 345 343 342 342 343 340 337 334 333 340 333 333 334 332 334 335 338 339 337 336
336 337 337 336 335 334 332 330 329 329 330 332 341 343 342 344 344 344 344 345 344 344 344 343 343 342 344 342 338 337 337 334 342 335 334 334 335 333 333 334 336 336 335
336 337 337 336 334 332 331 329 329 330 332 339 344 345 343 344 344 345 346 345 346 346 344 343 343 342 342 338 336 336 330 335 332 333 333 334 334 339 337 336 336 337 336
337 337 337 337 335 332 330 329 330 334 336 343 343 342 345 347 347 346 347 346 345 343 343 342 343 342 341 339 335 332 331 332 334 333 333 335 336 336 338 338 337 337 338
337 337 340 339 336 334 331 330 337 338 341 344 345 345 344 347 345 345 346 345 346 344 343 342 342 342 341 341 337 332 333 333 334 332 336 339 339 340 338 338 338 340 340
339 342 345 342 334 334 333 331 339 338 345 346 345 347 346 346 345 345 344 345 347 344 343 342 343 344 342 337 329 331 333 333 333 336 335 335 335 336 333 332 334 337 338
339 344 345 343 336 335 334 331 334 338 341 343 345 346 347 347 346 344 344 343 347 345 343 343 343 344 342 332 332 333 335 336 334 337 337 336 332 333 329 326 324 324 331
344 344 344 340 337 339 337 335 333 335 345 346 344 344 346 347 347 346 344 344 345 344 344 343 344 345 343 336 330 334 336 336 337 334 336 334 331 330 329 328 324 324 327
344 344 344 342 341 340 343 337 338 342 345 346 346 345 345 347 347 346 345 342 345 345 345 342 341 343 343 334 332 330 334 335 336 338 336 335 332 332 331 330 328 328 326
344 344 345 345 343 343 342 341 339 344 347 347 346 343 343 345 348 346 344 345 344 345 346 342 342 343 343 334 330 331 333 335 336 338 338 338 334 333 332 332 330 328 329
344 345 345 345 345 345 345 344 343 344 346 347 347 346 346 346 343 341 344 344 345 346 346 344 342 342 343 336 324 329 331 336 337 338 339 338 338 337 334 333 332 331 329
Wind_Speed
30 27 27 25 26 27 23 25 23 24 23 20 18 15 12 11 11 9 9 9 9 8 8 9 9 8 7 6 6 9 8 7 7 7 7 9 8 6 8 11 11 10 11
32 28 25 24 27 26 26 25 24 23 21 19 16 14 13 12 10 9 10 9 9 8 8 9 9 8 7 9 11 12 12 9 7 8 9 10 9 8 8 11 11 10 11
32 27 24 24 26 26 26 25 23 21 19 17 15 14 13 11 10 10 10 9 9 9 9 9 9 8 7 8 7 6 9 12 10 12 10 8 7 7 10 9 10 11 12
32 26 26 25 27 27 25 23 21 19 18 16 15 14 13 11 10 10 9 9 9 8 8 8 7 8 8 7 7 7 7 9 9 9 9 9 9 7 10 10 9 11 10
31 27 27 27 26 25 24 21 19 18 17 15 14 13 12 10 10 10 9 10 9 8 8 7 8 8 7 7 6 8 9 6 7 7 10 10 9 8 8 10 10 11 11
30 27 27 26 25 24 22 20 18 17 16 14 13 12 11 10 9 9 11 10 8 7 8 8 8 8 7 6 6 6 7 6 6 6 7 9 9 9 10 11 11 11 11
29 27 27 25 23 22 20 18 17 15 14 13 12 11 10 9 9 9 11 9 10 10 10 10 10 9 9 7 6 5 7 7 6 6 7 7 8 8 10 9 10 11 10
27 26 25 25 22 20 19 16 15 14 13 12 11 10 9 9 9 9 9 10 10 11 11 11 11 10 9 8 8 7 4 5 5 6 6 7 11 9 6 6 9 9 9
25 26 25 25 22 20 17 15 13 12 11 11 10 11 10 9 9 9 8 8 9 9 10 9 10 11 9 9 8 9 8 6 5 5 6 8 9 7 6 5 7 8 8
25 29 28 26 23 20 17 14 12 11 11 11 11 10 9 8 9 8 7 7 8 9 8 8 8 9 8 8 8 6 7 8 5 5 4 7 8 4 5 6 7 7 6
25 27 27 27 24 20 17 15 13 12 11 11 10 9 8 8 7 7 6 6 6 6 6 5 7 8 8 5 7 8 6 5 2 4 3 4 6 6 7 5 6 5 5
26 28 28 27 24 21 18 16 15 13 13 11 10 8 7 6 5 4 3 3 4 3 2 1 3 6 6 6 7 8 7 7 3 4 4 4 3 4 7 6 6 4 4
29 28 28 27 25 22 20 18 16 15 14 13 11 8 6 4 3 3 2 2 2 2 2 1 3 4 5 6 7 9 7 7 6 5 5 4 3 2 4 4 6 5 5
31 29 28 27 25 23 21 19 17 16 15 14 12 8 5 5 4 2 2 2 0 1 1 2 0 3 4 6 7 8 6 5 7 4 8 6 3 1 1 1 3 4 4
32 30 28 27 25 23 21 20 19 17 15 14 13 9 6 6 5 2 1 3 1 2 2 4 1 3 1 3 3 3 6 4 3 6 3 5 3 2 3 1 2 4 4
32 30 28 26 25 23 22 20 19 18 16 15 13 9 8 6 5 3 3 2 2 1 2 4 5 3 1 1 1 2 5 2 2 5 4 4 5 1 2 2 4 2 3
32 29 28 26 25 24 22 21 20 19 17 16 13 10 8 7 4 2 4 4 3 4 3 2 4 3 1 1 1 4 4 1 1 4 2 2 3 2 2 1 2 1 4
32 32 28 27 26 25 24 22 21 20 18 17 15 12 10 10 8 6 5 4 6 6 7 5 5 7 4 6 4 4 5 3 1 1 1 0 1 2 1 2 2 4 4
33 32 30 29 28 26 24 23 21 20 21 20 17 13 15 12 11 9 6 5 6 5 5 5 5 6 5 7 7 4 1 5 2 2 2 1 1 1 2 3 0 0 3
34 31 28 28 29 27 26 25 24 24 24 22 19 17 17 14 11 12 9 8 6 6 7 6 6 5 5 6 8 4 1 4 3 2 2 1 0 1 1 4 5 3 3
35 33 29 28 29 30 31 31 29 30 27 24 21 17 17 14 12 11 9 11 8 9 8 7 7 8 7 9 3 3 2 2 3 3 4 3 2 2 1 1 4 6 5
38 37 34 31 31 31 33 33 34 30 28 26 23 21 18 15 14 11 12 10 9 9 9 10 8 8 7 6 2 4 3 2 5 4 3 1 2 3 4 3 0 3 3
39 40 38 35 34 32 32 32 34 33 31 29 28 27 25 20 18 15 13 13 13 11 11 11 12 8 7 5 4 5 3 3 6 8 5 3 5 5 5 7 7 5 2
42 39 39 38 36 34 33 36 35 34 32 29 27 27 26 22 21 18 16 16 15 15 13 11 11 10 7 6 5 8 8 5 6 5 9 8 6 5 3 3 4 6 6
44 42 41 39 39 36 37 38 37 36 33 29 25 24 23 25 26 25 22 19 17 17 14 12 11 9 8 7 8 6 9 10 10 6 7 8 11 9 6 5 3 2 3
42 42 43 44 42 41 40 40 40 38 37 35 31 27 24 23 23 23 23 22 20 19 16 14 13 12 10 9 8 10 8 6 7 8 8 9 10 10 11 10 10 8 6
Wind_Direction
134 131 136 135 133 139 139 139 132 134 130 127 125 127 123 118 109 107 107 101 94 95 106 115 119 114 101 89 89 97 95 105 121 127 127 127 123 129 115 114 117 113 119
141 137 138 137 137 138 138 135 134 130 128 128 130 126 122 109 107 109 103 98 102 100 106 113 111 107 105 101 101 100 84 84 105 112 117 124 124 120 121 119 115 115 117
147 140 137 140 141 142 138 136 131 130 130 130 129 125 116 112 107 101 104 112 108 105 101 109 115 121 108 112 108 107 79 73 87 106 110 127 126 111 122 120 125 114 123
149 142 138 142 140 138 136 134 134 133 130 130 127 123 120 110 97 95 96 99 101 101 104 106 114 117 111 107 97 88 101 80 88 110 102 114 123 109 123 126 121 125 119
150 145 143 144 143 140 137 135 136 133 130 127 123 121 115 104 101 103 98 95 88 86 95 100 100 108 120 116 101 83 95 101 86 94 115 122 121 124 127 130 122 116 114
153 149 149 149 146 141 139 138 138 132 127 128 122 115 113 106 102 99 94 90 82 90 90 89 88 92 100 106 84 92 94 93 94 94 118 123 126 125 118 115 115 118 116
155 155 154 155 151 144 142 142 134 134 135 127 120 119 117 111 106 98 100 94 91 95 90 84 80 79 89 91 88 86 92 90 96 93 120 129 124 115 122 120 119 116 117
157 156 159 160 157 152 146 143 140 137 132 128 125 127 119 111 105 97 93 96 96 94 84 80 75 68 67 69 65 60 66 75 70 77 108 127 123 121 124 124 119 115 108
161 160 164 165 164 159 154 152 149 141 138 131 129 126 116 111 104 103 100 98 95 94 92 85 72 59 59 68 68 58 54 69 65 73 94 127 129 127 123 128 131 128 123
166 170 171 171 172 168 164 165 160 154 149 141 130 124 117 108 100 97 99 103 105 103 97 83 67 65 64 61 64 62 49 57 69 60 81 134 132 144 132 125 129 130 128
172 175 177 180 181 179 175 175 169 166 161 155 138 129 120 114 111 106 96 99 118 116 101 88 78 76 65 57 44 63 56 34 70 77 95 116 141 162 149 142 134 134 144
177 179 181 184 188 187 185 184 179 176 172 167 163 150 135 127 125 118 103 112 116 117 84 52 70 66 69 63 34 41 36 27 84 86 80 84 111 142 163 175 160 154 153
178 182 183 185 188 189 191 190 187 184 181 177 175 171 173 148 178 193 175 135 125 120 32 6 59 48 54 78 68 42 39 52 53 75 65 76 75 113 136 162 163 166 177
183 184 184 186 190 193 195 195 192 191 188 189 187 184 181 183 162 140 143 176 225 332 34 64 131 23 48 89 68 44 40 64 42 84 66 63 64 152 158 122 178 171 192
187 188 188 190 192 196 198 198 195 195 195 196 197 202 191 187 196 200 191 188 215 301 318 11 336 299 1 101 44 75 43 40 58 90 79 33 52 60 210 190 173 198 205
191 193 194 196 197 200 200 198 197 199 199 200 200 203 199 189 199 238 236 214 269 238 289 342 354 353 23 303 293 92 37 0 200 121 76 33 357 162 95 208 226 222 211
197 197 199 199 200 201 201 201 201 201 206 202 195 198 202 199 208 258 246 244 265 275 258 313 347 319 332 274 336 324 325 305 11 170 117 61 46 101 112 93 54 261 249
203 204 202 203 205 204 204 203 203 207 207 199 194 206 220 227 236 253 267 275 292 280 273 293 337 349 320 337 305 288 330 202 35 170 167 250 121 162 125 97 90 77 49
207 207 206 208 209 206 204 204 208 208 203 201 211 228 238 237 240 245 259 280 299 286 269 301 303 340 319 309 327 326 320 174 170 163 206 191 224 265 271 250 260 71 26
209 208 209 213 213 210 208 207 210 208 206 209 221 228 232 234 239 243 243 266 278 266 277 282 289 314 313 306 310 287 145 171 200 233 96 132 45 221 262 230 222 260 281
211 211 212 214 213 211 210 209 209 210 212 219 225 224 229 230 238 228 246 260 273 273 285 278 294 301 312 319 282 261 202 166 197 140 139 90 69 115 63 139 214 242 253
215 215 215 216 215 213 214 212 214 216 222 227 226 223 224 229 236 244 249 262 269 279 282 280 285 294 300 325 217 191 195 196 202 190 187 97 89 119 85 50 317 244 231
217 218 215 212 213 214 216 214 216 220 226 229 230 230 231 233 242 256 248 248 255 270 277 278 270 284 284 298 229 189 188 200 190 218 223 185 138 125 102 67 72 80 111
219 218 219 216 216 216 216 215 215 219 225 231 236 237 236 237 241 249 245 241 251 262 275 284 258 268 274 288 241 215 212 202 203 209 221 215 199 178 156 101 83 86 85
219 222 222 222 220 220 219 220 222 225 232 237 240 241 238 243 246 252 244 237 247 257 268 270 264 268 269 273 239 237 226 229 232 228 232 224 227 224 223 216 209 167 124
223 223 226 226 226 225 225 225 227 230 233 236 236 237 238 242 243 234 234 233 248 250 256 262 258 259 258 258 249 236 237 232 234 231 238 246 239 236 235 245 243 232 220